Weather reports worldwide

Advertisment
Pertusato, France (7770): temperature & dewpoint: 16.03.2019 18:00:00 - 22.03.2019 18:00:00 (CET)Pertusato, France (7770): wind speed & gusts: 16.03.2019 18:00:00 - 22.03.2019 18:00:00 (CET)Pertusato, France (7770): wind direction: 16.03.2019 18:00:00 - 22.03.2019 18:00:00 (CET)Pertusato, France (7770): reduced air pressure: 16.03.2019 18:00:00 - 22.03.2019 18:00:00 (CET)Pertusato, France (7770): visibility: 16.03.2019 18:00:00 - 22.03.2019 18:00:00 (CET)Pertusato, France (7770): precipitation: 16.03.2019 18:00:00 - 22.03.2019 18:00:00 (CET)
Date & Time tt [°C] td [°C] ff [km/h] ff [kn] fx [km/h] fx [kn] dd ppp [hPa] vv [km] rr [mm]
22.03.2019 18:00:00 13,9 7,4 19 10 35 19 ENE 1024,5 - 0,0
22.03.2019 17:00:00 15,3 6,6 26 14 41 22 ENE 1024,6 - 0,0
22.03.2019 16:00:00 16,8 5,7 26 14 41 22 ENE 1024,6 - 0,0
22.03.2019 15:00:00 17,5 6,4 26 14 40 22 ENE 1024,7 - 0,0
22.03.2019 14:00:00 17,2 6,7 26 14 42 23 ENE 1025,2 - 0,0
22.03.2019 13:00:00 17,6 6,5 27 15 41 22 ENE 1025,8 - 0,0
22.03.2019 12:00:00 17,6 8,7 23 12 45 24 NE 1026,2 - 0,0
22.03.2019 11:00:00 16,8 5,7 30 16 53 28 ENE 1026,1 - 0,0
22.03.2019 10:00:00 15,7 3,8 31 17 50 27 NE 1026,1 22 0,0
22.03.2019 09:00:00 14,9 4,6 29 16 48 26 NE 1025,6 - 0,0
22.03.2019 08:00:00 13,7 4,6 24 13 49 27 NE 1025,6 - 0,0
22.03.2019 07:00:00 12,4 4,8 29 16 48 26 NE 1025,2 - 0,0
22.03.2019 06:00:00 12,0 4,5 27 15 43 23 NE 1024,7 - 0,0
22.03.2019 05:00:00 12,2 4,4 24 13 40 21 NE 1024,8 - 0,0
22.03.2019 04:00:00 12,5 3,2 25 13 43 23 NE 1024,8 - 0,0
22.03.2019 03:00:00 12,2 6,5 29 15 45 24 NE 1024,8 - 0,0
22.03.2019 02:00:00 12,5 7,8 25 13 43 23 NE 1024,9 - 0,0
22.03.2019 01:00:00 13,1 6,4 26 14 47 26 NE 1024,9 - 0,0
22.03.2019 00:00:00 13,2 6,8 25 13 45 24 NE 1024,8 - 0,0
21.03.2019 23:00:00 13,8 5,9 27 15 44 24 NE 1024,7 - 0,0
21.03.2019 22:00:00 13,6 6,5 27 14 44 24 NE 1024,4 - 0,0
21.03.2019 21:00:00 13,5 4,4 23 12 39 21 NE 1024,3 - 0,0
21.03.2019 20:00:00 12,5 7,0 22 12 46 25 NE 1024,0 - 0,0
21.03.2019 19:00:00 12,8 7,7 29 15 47 25 NE 1023,9 15 0,0
21.03.2019 18:00:00 13,1 6,2 26 14 54 29 NE 1023,7 - 0,0
21.03.2019 17:00:00 13,8 5,4 33 18 56 30 NE 1023,5 - 0,0
21.03.2019 16:00:00 14,0 5,6 35 19 62 33 NE 1023,7 - 0,0
21.03.2019 15:00:00 14,8 5,6 38 21 63 34 NE 1023,9 - 0,0
21.03.2019 14:00:00 14,5 5,3 39 21 69 37 NE 1024,1 - 0,0
21.03.2019 13:00:00 14,8 5,6 36 20 72 39 NE 1024,7 20 0,0
21.03.2019 12:00:00 14,4 4,9 41 22 79 43 NE 1024,8 - 0,0
21.03.2019 11:00:00 13,7 4,3 43 23 77 42 NE 1024,5 - 0,0
21.03.2019 10:00:00 13,1 3,5 45 25 77 42 NE 1024,3 - 0,0
21.03.2019 09:00:00 12,5 1,8 41 22 79 42 NE 1024,3 - 0,0
21.03.2019 08:00:00 11,2 1,4 41 22 71 39 NE 1024,0 - 0,0
21.03.2019 07:00:00 10,4 0,7 42 23 70 38 NE 1023,6 20 0,0
21.03.2019 06:00:00 10,1 0,7 40 22 75 40 NE 1023,8 - 0,0
21.03.2019 05:00:00 9,8 0,1 38 20 68 37 NE 1023,8 - 0,0
21.03.2019 04:00:00 9,8 3,1 35 19 63 34 NE 1023,7 16 0,0
21.03.2019 03:00:00 9,9 2,5 35 19 67 36 NE 1024,1 - 0,0
21.03.2019 02:00:00 10,3 1,6 45 25 77 42 NE 1023,7 - 0,0
21.03.2019 01:00:00 10,8 1,1 42 23 68 37 NE 1024,0 - 0,0
21.03.2019 00:00:00 11,1 1,9 37 20 69 37 NE 1024,4 - 0,0
20.03.2019 23:00:00 11,4 2,1 34 18 61 33 NE 1024,3 - 0,0
20.03.2019 22:00:00 11,8 2,3 35 19 63 34 NE 1024,5 - 0,0
20.03.2019 21:00:00 11,8 1,4 29 16 55 30 NE 1024,6 - 0,0
20.03.2019 20:00:00 11,7 1,0 27 15 51 27 NE 1024,2 - 0,0
20.03.2019 19:00:00 11,9 2,1 27 15 51 28 NE 1023,9 - 0,0
20.03.2019 18:00:00 12,6 1,9 29 16 50 27 NE 1023,3 - 0,0
20.03.2019 17:00:00 12,9 2,4 29 16 56 30 NE 1023,0 - 0,0
20.03.2019 16:00:00 14,2 3,3 33 18 63 34 NE 1023,8 15 0,0
20.03.2019 15:00:00 14,1 3,5 36 20 68 37 NE 1022,9 - 0,0
20.03.2019 14:00:00 13,9 4,7 41 22 78 42 NE 1023,3 - 0,0
20.03.2019 13:00:00 13,5 4,9 44 24 77 41 NE 1023,6 15 0,0
20.03.2019 12:00:00 13,3 4,2 44 24 79 42 NE 1023,3 - 0,0
20.03.2019 11:00:00 13,2 4,6 42 23 79 43 NE 1022,9 - 0,0
20.03.2019 10:00:00 12,6 3,3 40 22 76 41 NE 1022,8 15 0,0
20.03.2019 09:00:00 11,5 1,7 42 23 73 39 NE 1023,1 - 0,0
20.03.2019 08:00:00 10,4 0,7 29 16 54 29 NE 1023,1 - 0,0
20.03.2019 07:00:00 8,9 -0,2 28 15 50 27 NE 1022,2 - 0,0
20.03.2019 06:00:00 8,8 -0,3 27 15 47 25 NE 1022,0 - 0,0
20.03.2019 05:00:00 8,7 -0,1 25 13 42 23 NE 1021,8 - 0,0
20.03.2019 04:00:00 8,8 0,0 24 13 49 26 NE 1021,6 15 0,0
20.03.2019 03:00:00 9,3 1,4 27 15 51 28 NE 1021,6 - 0,0
20.03.2019 02:00:00 9,5 1,9 28 15 49 26 NE 1021,8 - 0,0
20.03.2019 01:00:00 9,7 2,3 24 13 46 25 NE 1022,1 - 0,0
20.03.2019 00:00:00 10,1 0,7 26 14 49 27 NE 1021,8 - 0,0
19.03.2019 23:00:00 10,3 0,0 29 15 51 28 NE 1021,6 - 0,0
19.03.2019 22:00:00 10,4 0,4 28 15 53 29 NE 1021,5 20 0,0
19.03.2019 21:00:00 10,3 0,3 29 16 58 32 NE 1021,0 - 0,0
19.03.2019 20:00:00 10,6 1,4 31 17 55 30 NE 1020,5 - 0,0
19.03.2019 19:00:00 10,9 3,2 29 16 50 27 NE 1020,1 20 0,0
19.03.2019 18:00:00 10,8 4,0 26 14 47 25 NE 1019,7 - 0,0
19.03.2019 17:00:00 10,9 5,4 24 13 46 25 NE 1019,0 - 0,0
19.03.2019 16:00:00 11,1 4,8 26 14 42 23 NE 1018,7 20 0,0
19.03.2019 15:00:00 12,0 4,7 27 15 48 26 NE 1018,6 - 0,0
19.03.2019 14:00:00 13,7 5,6 29 16 54 29 NE 1018,6 - 0,0
19.03.2019 13:00:00 12,9 5,6 33 18 56 30 NE 1018,6 20 0,0
19.03.2019 12:00:00 11,5 6,0 28 15 50 27 NE 1018,8 - 0,0
19.03.2019 11:00:00 13,9 5,0 31 17 50 27 NE 1018,2 - 0,0
19.03.2019 10:00:00 14,1 4,9 23 12 36 19 NE 1018,0 - 0,0
19.03.2019 09:00:00 12,7 4,1 15 8 29 16 NNE 1017,7 - 0,0
19.03.2019 08:00:00 11,3 4,0 15 8 21 12 ENE 1017,6 - 0,0
19.03.2019 07:00:00 8,8 5,2 9 5 12 7 ESE 1017,1 19 0,0
19.03.2019 06:00:00 8,7 4,9 4 2 11 6 WNW 1016,7 - 0,0
19.03.2019 05:00:00 10,3 5,7 7 4 16 9 WSW 1016,4 - 0,0
19.03.2019 04:00:00 10,5 5,5 16 9 26 14 W 1016,0 - 0,0
19.03.2019 03:00:00 10,5 4,8 8 4 22 12 N 1015,9 - 0,0
19.03.2019 02:00:00 10,4 4,7 5 3 15 8 SSW 1016,2 - 0,0
19.03.2019 01:00:00 10,0 4,1 12 7 22 12 W 1016,6 - 0,0
19.03.2019 00:00:00 10,6 4,1 13 7 35 19 WNW 1016,4 - 0,0
18.03.2019 23:00:00 10,5 3,1 20 11 33 18 NW 1016,2 - 0,0
18.03.2019 22:00:00 10,4 3,7 16 9 29 16 WNW 1015,9 - 0,0
18.03.2019 21:00:00 10,1 5,1 17 9 28 15 NW 1015,3 - 0,0
18.03.2019 20:00:00 11,1 5,0 19 10 40 21 W 1014,7 - 0,0
18.03.2019 19:00:00 11,4 6,1 14 8 53 29 WNW 1014,8 13 0,0
18.03.2019 18:00:00 11,2 5,1 24 13 72 39 W 1014,2 - 0,0
18.03.2019 17:00:00 11,4 3,7 39 21 76 41 W 1013,4 - 0,0
18.03.2019 16:00:00 11,7 3,7 32 18 87 47 W 1013,0 - 0,0
18.03.2019 15:00:00 11,6 4,3 38 20 82 45 W 1013,1 - 0,0
18.03.2019 14:00:00 12,5 4,7 54 29 92 50 W 1013,2 - 0,0
18.03.2019 13:00:00 12,4 3,9 61 33 85 46 W 1013,2 - 0,0
18.03.2019 12:00:00 12,6 4,0 57 31 89 48 W 1013,3 - 0,0
18.03.2019 11:00:00 12,4 4,6 60 33 93 50 W 1013,1 - 0,0
18.03.2019 10:00:00 12,3 5,0 54 29 82 44 W 1012,8 - 0,0
18.03.2019 09:00:00 12,0 5,2 45 24 82 44 W 1013,1 - 0,0
18.03.2019 08:00:00 11,7 5,1 52 28 76 41 W 1012,7 - 0,0
18.03.2019 07:00:00 11,6 6,1 52 28 75 40 W 1012,2 16 0,0
18.03.2019 06:00:00 11,9 7,4 45 25 69 37 W 1012,0 - 0,0
18.03.2019 05:00:00 12,2 10,6 41 22 57 31 W 1012,4 - 0,0
18.03.2019 04:00:00 12,6 11,3 28 15 65 35 W 1012,0 16 0,0
18.03.2019 03:00:00 12,7 11,3 43 23 64 35 W 1012,2 - 0,0
18.03.2019 02:00:00 12,4 10,3 40 21 60 32 W 1012,4 - 0,0
18.03.2019 01:00:00 12,9 11,1 24 13 53 28 W 1012,7 - 0,0
18.03.2019 00:00:00 13,4 9,8 26 14 55 30 W 1012,8 - 0,0
17.03.2019 23:00:00 13,5 7,5 34 18 48 26 W 1013,2 - 0,0
17.03.2019 22:00:00 14,1 5,2 27 14 37 20 W 1013,3 - 0,0
17.03.2019 21:00:00 13,7 4,8 19 10 28 15 W 1013,4 - 0,0
17.03.2019 20:00:00 13,3 8,6 10 5 22 12 W 1013,6 - 0,0
17.03.2019 19:00:00 13,5 8,8 9 5 16 9 W 1013,9 15 0,0
17.03.2019 18:00:00 15,4 8,6 8 4 11 6 WSW 1013,8 - 0,0
17.03.2019 17:00:00 16,5 8,2 4 2 10 5 SSW 1014,1 - 0,0
17.03.2019 16:00:00 18,3 6,5 4 2 10 5 SW 1014,5 - 0,0
17.03.2019 15:00:00 17,7 5,9 4 2 21 12 WSW 1015,2 - 0,0
17.03.2019 14:00:00 16,3 8,8 13 7 20 11 SE 1015,6 - 0,0
17.03.2019 13:00:00 17,3 7,6 5 3 17 9 SSW 1016,4 18 0,0
17.03.2019 12:00:00 15,2 9,1 6 3 11 6 SW 1017,0 - 0,0
17.03.2019 11:00:00 14,2 8,6 6 3 11 6 SSW 1017,7 - 0,0
17.03.2019 10:00:00 14,1 8,7 7 4 16 9 W 1018,2 18 0,0
17.03.2019 09:00:00 13,4 8,2 6 3 14 8 W 1018,2 - 0,0
17.03.2019 08:00:00 12,0 8,7 4 2 11 6 NW 1018,0 - 0,0
17.03.2019 07:00:00 11,1 8,1 10 5 19 10 NW 1017,6 - 0,0
17.03.2019 06:00:00 10,9 7,8 10 5 24 13 WNW 1017,5 - 0,0
17.03.2019 05:00:00 11,9 8,6 17 9 29 16 W 1017,5 - 0,0
17.03.2019 04:00:00 12,1 9,1 18 10 38 20 W 1017,3 10 0,0
17.03.2019 03:00:00 12,3 9,7 25 14 44 24 W 1017,6 - 0,0
17.03.2019 02:00:00 12,2 9,6 31 17 42 23 W 1017,9 - 0,0
17.03.2019 01:00:00 12,4 9,6 30 16 49 26 W 1018,2 10 0,0
17.03.2019 00:00:00 12,3 10,0 32 17 52 28 W 1018,8 - 0,0
16.03.2019 23:00:00 12,5 9,0 34 18 57 31 W 1019,0 - 0,0
16.03.2019 22:00:00 12,6 10,3 26 14 55 30 W 1018,5 - 0,0
16.03.2019 21:00:00 12,6 10,1 25 13 71 38 W 1018,3 - 0,0
16.03.2019 20:00:00 12,8 10,3 34 19 68 37 W 1017,9 - 0,0
16.03.2019 19:00:00 12,8 10,0 27 15 69 37 W 1017,4 - 0,0
16.03.2019 18:00:00 12,8 9,8 35 19 77 41 W 1016,8 - 0,0

tt = temperature
td = dewpoint
ff = wind speed
fx = gusts
dd = wind direction
ppp = reduced air pressure
vv = visibility
rr = precipitation

Next stations